Regional Weather Roundup
Issued by NWS

Home | Current Version | Previous Version | Graphics & Text | Print | Product List | Glossary On
Versions: 1 2 3 4 5 6 7 8 9 10 11 12 13 14 15 16 17 18 19 20 21 22 23 24 25 26 27 28 29 30 31 32 33 34 35 36 37 38 39 40 41 42 43 44 45 46 47 48 49 50
000
ASUS45 KBOU 022107
RWRCO

WEATHER ROUNDUP FOR COLORADO
NATIONAL WEATHER SERVICE DENVER/BOULDER CO
300 PM MDT SAT MAY 02 2015

NOTE: "FAIR" INDICATES FEW OR NO CLOUDS BELOW 12000 FEET WITH NO
SIGNIFICANT WEATHER AND/OR OBSTRUCTIONS TO VISIBILITY.

COZ001>005-013-030-031-022200-
...NORTHWEST COLORADO...

CITY           SKY/WX    TMP DP  RH WIND       PRES   REMARKS
CRAIG          PTSUNNY   70  32  24 W21G30    29.96F
HAYDEN         PTSUNNY   66  30  26 W14G22    29.98F
MEEKER         CLOUDY    66  33  29 VRB3      30.01F
MOUNT WERNER   NOT AVBL
STEAMBOAT SPGS PTSUNNY   69  32  25 W18G26    29.99F
WALDEN         PTSUNNY   63  27  25 W9G23     30.06F
$$

COZ006>008-011-022200-
...WEST CENTRAL VALLEYS...

CITY           SKY/WX    TMP DP  RH WIND       PRES   REMARKS
GRAND JUNCTION MOSUNNY   78  35  21 SW5       29.90F
MONTROSE       PTSUNNY   74  25  16 S8G16     29.99F
EAGLE          PTSUNNY   64  30  27 S10G18    30.06S
RIFLE          PTSUNNY   74  31  20 N17G25    29.95S
DELTA          PTSUNNY   83  22  10 W10G23    29.94F
NUCLA          PTSUNNY   77  21  12 W20G26    30.03F
$$

COZ017>023-064>068-022200-
...SOUTHWEST COLORADO...

CITY           SKY/WX    TMP DP  RH WIND       PRES   REMARKS
DURANGO        PTSUNNY   71  31  22 N13G18    30.04F
CORTEZ         SUNNY     80  19  10 W16G25    30.01F
PAGOSA SPRINGS PTSUNNY   63  25  23 NW14G21   30.14S THUNDER
TELLURIDE      CLOUDY    55  31  39 E12G17    30.23F
WOLF CREEK PAS NOT AVBL
$$

COZ009-010-012-014-032>034-037-058>063-022200-
...CENTRAL COLORADO...

CITY           SKY/WX    TMP DP  RH WIND       PRES   REMARKS
ASPEN          CLOUDY    56  28  34 SW16G24   30.12F
BUENA VISTA    NOT AVBL
COPPER MTN     CLOUDY    41  21  45 SW14G26   30.34F
BERTHOUD PASS  CLOUDY    30  23  74 NW24G37   30.35S WCI  16
COTTONWOOD PAS CLOUDY    54  23  30 W3G16     30.23S
GUNNISON       CLOUDY    61  27  27 S13G25    30.15F
KREMMLING      CLOUDY    59  30  33 NE8       30.08R
LEADVILLE      CLOUDY    47  28  47 N9        30.23F
MONARCH PASS   CLOUDY    36  28  75 SW23G32   30.45S
SALIDA         CLOUDY    63  30  29 SW20G35   30.19R
SUNLIGHT       CLOUDY    50  27  40 S3        30.28F
WILKERSON PASS CLOUDY    50  21  32 NW7       30.32R
$$

COZ069>075-022200-
...SAN LUIS VALLEY/SANGRE DE CRISTO MOUNTAINS...

CITY           SKY/WX    TMP DP  RH WIND       PRES   REMARKS
ALAMOSA        TSTM      53  38  56 NW28G36   30.16R
LA VETA PASS   CLOUDY    55  28  35 MISG      30.25S
SAGUACHE       CLOUDY    59  32  36 NE8       30.17F
$$

COZ035-036-038>040-022200-
...NORTHERN COLORADO FRONT RANGE...

CITY           SKY/WX    TMP DP  RH WIND       PRES   REMARKS
DENVER INTL AP CLOUDY    73  32  22 S5        29.92F
DMNS CITY PARK   N/A     73  32  22 NE5G10    29.92R
AURORA         PTSUNNY   73  34  24 SE3       29.94F
FRONT RANGE AP PTSUNNY   75  36  23 SE7       29.93F
ERIE MUNI ARPT CLOUDY    73  34  24 CALM      29.92S
BOULDER MUN AP CLOUDY    70  32  24 NW9       29.93S
CENTENNIAL     CLOUDY    72  34  24 NE7       29.94F
BROOMFIELD     TSTM      68  36  30 W14       29.97R
FORT COLLINS   PTSUNNY   72  43  35 S6        29.89F
LONGMONT       PTSUNNY   73  32  22 W12G20    29.93R
$$

COZ041-046-047-076>085-087-088-022200-
...PIKES PEAK/PALMER DIVIDE AND SOUTHERN FOOTHILLS...

CITY           SKY/WX    TMP DP  RH WIND       PRES   REMARKS
COLO. SPRINGS  CLOUDY    68  31  25 N20G28    29.98S THUNDER
A. F. ACADEMY  CLOUDY    68  33  27 E12G20    29.98F
ELLICOTT       CLOUDY   N/A N/A N/A SW8       29.96F THUNDER
FALCON         CLOUDY    62  32  32 N17G25    30.04R
FORT CARSON    NOT AVBL
LIMON          PTSUNNY   73  28  18 NW12      29.93F
MONUMENT HILL  CLOUDY    64  32  29 SE12      30.03F
TRINIDAD       CLOUDY    76  28  17 SE3       29.97F
$$

COZ042>045-048>051-090-091-022200-
...NORTHEAST COLORADO...

CITY           SKY/WX    TMP DP  RH WIND       PRES   REMARKS
GREELEY ARPT   PTSUNNY   75  37  25 S7        29.89F
AKRON          PTSUNNY   78  36  21 W15G21    29.89F
BURLINGTON     MOSUNNY   81  35  19 W6        29.87F
WRAY           MOSUNNY   85  33  15 W7        29.83F
STERLING       CLOUDY    70  43  37 SW14      29.85S
HOLYOKE        NOT AVBL
FORT MORGAN    NOT AVBL
$$

COZ086-089-092>099-022200-
...SOUTHEAST COLORADO...

CITY           SKY/WX    TMP DP  RH WIND       PRES   REMARKS
PUEBLO         MOSUNNY   80  30  16 MISG      29.86F
LA JUNTA       MOSUNNY   85  32  15 VRB3      29.85F
LAMAR          MOSUNNY   83  49  30 CALM      29.83F
SPRINGFIELD      N/A     78  40  25 SE6       29.89F
$$


USA.gov is the U.S. government's official web portal to all federal, state and local government web resources and services.